This demonstration page uses our WeatherBlox Daily Observations layout. Learn more.

Left ArrowRight Arrow

38.20091, -84.87328

Hourly Observations for July 5, 2015

Temp ( °F °C ) Dew Point ( °F °C ) Humidity (%) Winds ( mph kmh ) Pressure ( in mb ) Visibility ( mi km ) Precip ( " mm )
12:53 am 00:53 Clear with Mist and Fog 70 21.1 66 18.9 87 87 Calm 30.02 1017 4 6 0.00 0.00
1:53 am 01:53 Clear with Mist and Fog 70 21.1 66 18.9 87 87 ENE 3 6 30.01 1016 4 6 0.00 0.00
2:53 am 02:53 Clear with Mist and Fog 69 20.6 66 18.9 90 90 Calm 30.00 1016 4 6 0.00 0.00
3:53 am 03:53 Clear with Mist and Fog 69 20.6 66 18.9 90 90 ENE 5 7 30.00 1016 4 6 0.00 0.00
4:53 am 04:53 Clear with Mist and Fog 70 21.1 66 18.9 87 87 NE 3 6 30.01 1016 5 8 0.00 0.00
5:53 am 05:53 Mostly Clear with Mist and Fog 69 20.6 65 18.3 87 87 Calm 30.02 1017 5 8 0.00 0.00
6:53 am 06:53 Partly Cloudy with Mist and Fog 69 20.6 65 18.3 87 87 NNE 3 6 30.04 1017 3 5 0.00 0.00
7:53 am 07:53 Sunny with Mist and Fog 69 20.6 65 18.3 87 87 NE 3 6 30.05 1018 4 6 0.00 0.00
8:53 am 08:53 Hazy 70 21.1 64 17.8 82 82 ENE 5 7 30.06 1018 6 10 0.00 0.00
9:53 am 09:53 Sunny 73 22.8 61 16.1 66 66 ENE 9 15 30.06 1018 10 16 0.00 0.00
10:53 am 10:53 Sunny 74 23.3 60 15.6 62 62 E 7 11 30.06 1018 10 16 0.00 0.00
11:53 am 11:53 Sunny 74 23.3 61 16.1 64 64 VRB 5 7 30.06 1018 10 16 0.00 0.00
12:53 pm 12:53 Sunny 74 23.3 62 16.7 67 67 NNE 6 9 30.06 1018 10 16 0.00 0.00
1:53 pm 13:53 Sunny 76 24.4 64 17.8 67 67 VRB 3 6 30.05 1018 10 16 0.00 0.00
2:53 pm 14:53 Sunny 77 25 64 17.8 64 64 N 6 9 30.06 1018 10 16 0.00 0.00
3:53 pm 15:53 Mostly Sunny 79 26.1 65 18.3 62 62 Calm 30.05 1018 9 14 0.00 0.00
4:53 pm 16:53 Mostly Sunny 78 25.6 65 18.3 64 64 NNW 6 9 30.04 1017 9 14 0.00 0.00
5:53 pm 17:53 Mostly Cloudy 78 25.6 65 18.3 64 64 NNE 6 9 30.04 1017 10 16 0.00 0.00
6:18 pm 18:18 Mostly Cloudy 77 25 67 19.4 71 71 VRB 5 7 30.03 1017 10 16 0.00 0.00
6:48 pm 18:48 Partly Cloudy 77 25 66 19 69 69 WNW 6 9 30.03 1017 10 16 0.00 0.00
6:53 pm 18:53 Partly Cloudy 77 25 67 19.4 71 71 WNW 5 7 30.03 1017 10 16 0.00 0.00
7:53 pm 19:53 Sunny 76 24.4 64 17.8 67 67 NNE 5 7 30.04 1017 10 16 0.00 0.00
8:53 pm 20:53 Sunny 73 22.8 63 17.2 71 71 NNE 3 6 30.03 1017 10 16 0.00 0.00
9:53 pm 21:53 Clear 70 21.1 64 17.8 82 82 Calm 30.04 1017 10 16 0.00 0.00
10:53 pm 22:53 Clear 67 19.4 64 17.8 91 91 Calm 30.08 1019 9 14 0.00 0.00
11:53 pm 23:53 Clear with Mist and Fog 65 18.3 63 17.2 93 93 Calm 30.08 1019 6 10 0.00 0.00

Powered by AerisWeather